Weather History for PAFE - December, 2012

Change the Weather History Date:

Wednesday, December 12, 2012

  Actual Average Record
Temperature  
Mean Temperature 30 °F -  
Max Temperature 35 °F 35 °F - (-1)
Min Temperature 26 °F 29 °F - (-1)
Degree Days  
Heating Degree Days 34    
Moisture  
Dew Point 28 °F    
Average Humidity 83    
Maximum Humidity 93    
Minimum Humidity 65    
Precipitation  
Precipitation 0.21 in - - ()
Sea Level Pressure  
Sea Level Pressure 29.74 in    
Wind  
Wind Speed 8 mph (ESE)    
Max Wind Speed 17 mph    
Max Gust Speed 25 mph    
Visibility 8 miles    
Events      
Averages and records for this station are not official NWS values.
T = Trace of Precipitation, MM = Missing Value Source: NWS Daily Summary

Daily Weather History Graph

Daily Weather History Graph

Search for Another Location

Airport or City:

Trip Planner

Search our weather history database for the weather conditions in past years. The results will help you decide how hot, cold, wet, or windy it might be!

Date:

Astronomy

Dec. 12, 2012 Rise Set
Actual Time 8:25 AM AKST 3:14 PM AKST
Civil Twilight 7:36 AM AKST 4:03 PM AKST
Nautical Twilight 6:45 AM AKST 4:53 PM AKST
Astronomical Twilight 5:58 AM AKST 5:40 PM AKST
Moon 7:33 AM AKST (12/12) 3:02 PM AKST (12/12)
Length of Visible Light 8h 26m
Length of Day
6h 48m
Waning Crescent, 0% of the Moon is Illuminated
Dec 12
Waning Crescent
Dec 12
New
Dec 19
First Quarter
Dec 28
Full
Jan 4
Last Quarter

Hourly Weather History & Observations

Time (AKST) Temp. Windchill Dew Point Humidity Pressure Visibility Wind Dir Wind Speed Gust Speed Precip Events Conditions
12:16 AM 26.6 °F 17.5 °F 21.2 °F 80% 29.88 in 10.0 mi ENE 9.2 mph - N/A   Clear
12:36 AM 28.4 °F 22.2 °F 24.8 °F 86% 29.89 in 10.0 mi East 5.8 mph - N/A   Clear
12:56 AM 26.6 °F 21.2 °F 21.2 °F 80% 29.89 in 10.0 mi East 4.6 mph - N/A   Clear
1:16 AM 26.6 °F - 21.2 °F 80% 29.90 in 10.0 mi Calm Calm - N/A   Clear
1:36 AM 26.6 °F - 23.0 °F 86% 29.91 in 10.0 mi Calm Calm - N/A   Clear
1:56 AM 28.4 °F 23.3 °F 24.8 °F 86% 29.91 in 10.0 mi ENE 4.6 mph - N/A   Clear
2:16 AM 26.6 °F 19.1 °F 23.0 °F 86% 29.90 in 10.0 mi ENE 6.9 mph - N/A   Clear
2:36 AM 26.6 °F 20.0 °F 24.8 °F 93% 29.89 in 10.0 mi East 5.8 mph - N/A   Clear
2:56 AM 26.6 °F 21.2 °F 23.0 °F 86% 29.90 in 10.0 mi East 4.6 mph - N/A   Clear
3:16 AM 26.6 °F 20.0 °F 23.0 °F 86% 29.90 in 10.0 mi ENE 5.8 mph - N/A   Clear
3:36 AM 26.6 °F 19.1 °F 24.8 °F 93% 29.90 in 10.0 mi East 6.9 mph - N/A   Clear
3:56 AM 26.6 °F 19.1 °F 23.0 °F 86% 29.90 in 10.0 mi ENE 6.9 mph - N/A   Clear
4:16 AM 26.6 °F - 24.8 °F 93% 29.89 in 10.0 mi Calm Calm - N/A   Clear
4:36 AM 28.4 °F - 24.8 °F 86% 29.90 in 10.0 mi Calm Calm - N/A   Mostly Cloudy
4:56 AM 28.4 °F 23.3 °F 24.8 °F 86% 29.90 in 10.0 mi ENE 4.6 mph - N/A   Overcast
5:16 AM 28.4 °F 24.6 °F 24.8 °F 86% 29.90 in 10.0 mi ENE 3.5 mph - N/A   Overcast
5:36 AM 28.4 °F - 24.8 °F 86% 29.88 in 10.0 mi Calm Calm - N/A   Overcast
5:56 AM 30.2 °F - 26.6 °F 86% 29.88 in 10.0 mi Calm Calm - N/A   Overcast
6:16 AM 30.2 °F 24.3 °F 26.6 °F 86% 29.88 in 10.0 mi East 5.8 mph - N/A   Overcast
6:36 AM 30.2 °F 24.3 °F 26.6 °F 86% 29.88 in 10.0 mi East 5.8 mph - N/A   Overcast
6:56 AM 30.2 °F 24.3 °F 26.6 °F 86% 29.87 in 10.0 mi East 5.8 mph - N/A   Overcast
7:16 AM 32.0 °F - 26.6 °F 80% 29.86 in 10.0 mi Calm Calm - N/A   Overcast
7:36 AM 35.6 °F 30.7 °F 24.8 °F 65% 29.87 in 10.0 mi ESE 5.8 mph - N/A   Overcast
7:56 AM 35.6 °F 29.9 °F 24.8 °F 65% 29.86 in 10.0 mi ESE 6.9 mph - N/A   Overcast
8:16 AM 35.6 °F 28.6 °F 24.8 °F 65% 29.86 in 10.0 mi ESE 9.2 mph - N/A   Overcast
8:36 AM 33.8 °F 27.7 °F 24.8 °F 70% 29.86 in 10.0 mi ESE 6.9 mph - N/A   Overcast
8:56 AM 33.8 °F 27.0 °F 26.6 °F 75% 29.85 in 10.0 mi ESE 8.1 mph - N/A   Overcast
9:16 AM 33.8 °F 28.6 °F 26.6 °F 75% 29.87 in 10.0 mi ESE 5.8 mph - N/A   Overcast
9:36 AM 33.8 °F 24.8 °F 26.6 °F 75% 29.87 in 10.0 mi East 12.7 mph 16.1 mph N/A   Overcast
9:56 AM 33.8 °F 25.8 °F 26.6 °F 75% 29.86 in 10.0 mi ESE 10.4 mph 16.1 mph N/A   Overcast
10:16 AM 35.6 °F 28.6 °F 26.6 °F 70% 29.85 in 8.0 mi East 9.2 mph 17.3 mph N/A   Overcast
10:36 AM 33.8 °F 25.8 °F 26.6 °F 75% 29.84 in 3.0 mi ESE 10.4 mph - N/A   Overcast
10:56 AM 33.8 °F 27.0 °F 28.4 °F 81% 29.84 in 4.0 mi ESE 8.1 mph - N/A   Overcast
11:16 AM 33.8 °F 25.8 °F 28.4 °F 81% 29.83 in 9.0 mi ESE 10.4 mph 16.1 mph N/A   Overcast
11:36 AM 33.8 °F 26.4 °F 28.4 °F 81% 29.82 in 5.0 mi ESE 9.2 mph 16.1 mph N/A   Overcast
11:56 AM 33.8 °F 25.3 °F 28.4 °F 81% 29.81 in 10.0 mi ESE 11.5 mph 18.4 mph N/A   Overcast
12:16 PM 33.8 °F 25.3 °F 28.4 °F 81% 29.81 in 3.0 mi ESE 11.5 mph 16.1 mph N/A   Overcast
12:36 PM 33.8 °F 25.8 °F 28.4 °F 81% 29.80 in 2.5 mi ESE 10.4 mph - 0.01 in   Overcast
12:56 PM 33.8 °F 27.0 °F 28.4 °F 81% 29.80 in 2.0 mi ESE 8.1 mph - 0.01 in   Overcast
1:16 PM 33.8 °F 26.4 °F 28.4 °F 81% 29.79 in 2.5 mi ESE 9.2 mph 16.1 mph 0.01 in   Overcast
1:36 PM 33.8 °F 26.4 °F 30.2 °F 87% 29.77 in 5.0 mi ESE 9.2 mph 17.3 mph 0.02 in   Overcast
1:56 PM 33.8 °F 25.3 °F 30.2 °F 87% 29.76 in 5.0 mi ESE 11.5 mph 17.3 mph 0.02 in   Overcast
2:16 PM 33.8 °F 26.4 °F 30.2 °F 87% 29.75 in 5.0 mi ESE 9.2 mph - 0.01 in   Overcast
2:36 PM 33.8 °F 25.8 °F 30.2 °F 87% 29.74 in 10.0 mi ESE 10.4 mph - 0.01 in   Overcast
2:56 PM 33.8 °F 25.8 °F 30.2 °F 87% 29.73 in 5.0 mi ESE 10.4 mph - 0.02 in   Overcast
3:16 PM 33.8 °F 25.8 °F 30.2 °F 87% 29.71 in 4.0 mi ESE 10.4 mph 17.3 mph 0.01 in   Overcast
3:36 PM 33.8 °F 25.3 °F 30.2 °F 87% 29.69 in 5.0 mi ESE 11.5 mph 18.4 mph 0.03 in   Overcast
3:56 PM 33.8 °F 25.8 °F 30.2 °F 87% 29.68 in 5.0 mi ESE 10.4 mph - 0.04 in   Overcast
4:16 PM 33.8 °F 24.8 °F 28.4 °F 81% 29.66 in 5.0 mi ESE 12.7 mph 18.4 mph 0.02 in   Overcast
4:36 PM 33.8 °F 24.8 °F 30.2 °F 87% 29.64 in 8.0 mi ESE 12.7 mph 20.7 mph 0.04 in   Overcast
4:56 PM 33.8 °F 24.8 °F 30.2 °F 87% 29.63 in 9.0 mi ESE 12.7 mph 16.1 mph 0.05 in   Overcast
5:16 PM 33.8 °F 25.3 °F 30.2 °F 87% 29.61 in 10.0 mi ESE 11.5 mph 18.4 mph N/A   Overcast
5:36 PM 33.8 °F 24.8 °F 30.2 °F 87% 29.60 in 10.0 mi ESE 12.7 mph 18.4 mph N/A   Overcast
5:56 PM 33.8 °F 23.9 °F 30.2 °F 87% 29.58 in 10.0 mi ESE 15.0 mph 21.9 mph N/A   Overcast
6:16 PM 33.8 °F 24.3 °F 30.2 °F 87% 29.58 in 10.0 mi ESE 13.8 mph 20.7 mph N/A   Overcast
6:36 PM 33.8 °F 23.2 °F 30.2 °F 87% 29.57 in 10.0 mi SE 17.3 mph 25.3 mph N/A   Overcast
6:56 PM 33.8 °F 23.5 °F 30.2 °F 87% 29.56 in 10.0 mi SE 16.1 mph 21.9 mph N/A   Overcast
7:16 PM 33.8 °F 24.3 °F 30.2 °F 87% 29.56 in 10.0 mi ESE 13.8 mph 18.4 mph 0.01 in   Overcast
7:36 PM 33.8 °F 24.3 °F 30.2 °F 87% 29.55 in 7.0 mi ESE 13.8 mph 19.6 mph 0.01 in   Overcast
7:56 PM 33.8 °F 24.8 °F 30.2 °F 87% 29.54 in 8.0 mi ESE 12.7 mph 19.6 mph 0.01 in   Overcast
8:16 PM 33.8 °F 23.5 °F 30.2 °F 87% 29.52 in 7.0 mi ESE 16.1 mph 23.0 mph N/A   Overcast
8:36 PM 33.8 °F 23.5 °F 30.2 °F 87% 29.50 in 9.0 mi ESE 16.1 mph 21.9 mph N/A   Overcast
8:56 PM 35.6 °F 25.9 °F 30.2 °F 81% 29.49 in 10.0 mi ESE 16.1 mph 24.2 mph N/A   Overcast
9:16 PM 35.6 °F 25.9 °F 30.2 °F 81% 29.49 in 10.0 mi ESE 16.1 mph 24.2 mph 0.01 in   Overcast
9:36 PM 35.6 °F 25.5 °F 30.2 °F 81% 29.47 in 9.0 mi ESE 17.3 mph 24.2 mph 0.02 in   Overcast
9:56 PM 35.6 °F 25.9 °F 30.2 °F 81% 29.47 in 8.0 mi ESE 16.1 mph 24.2 mph 0.03 in   Overcast
10:16 PM 35.6 °F 26.6 °F 30.2 °F 81% 29.47 in 9.0 mi ESE 13.8 mph 23.0 mph 0.02 in   Overcast
10:36 PM 35.6 °F 26.2 °F 30.2 °F 81% 29.47 in 10.0 mi ESE 15.0 mph 23.0 mph 0.03 in   Overcast
10:56 PM 35.6 °F 25.5 °F 30.2 °F 81% 29.45 in 10.0 mi ESE 17.3 mph 23.0 mph 0.03 in   Overcast
11:16 PM 35.6 °F 26.6 °F 32.0 °F 87% 29.45 in 10.0 mi ESE 13.8 mph 23.0 mph N/A   Overcast
11:36 PM 35.6 °F 27.5 °F 32.0 °F 87% 29.45 in 10.0 mi ESE 11.5 mph 19.6 mph N/A   Overcast
11:56 PM 35.6 °F 27.1 °F 32.0 °F 87% 29.44 in 10.0 mi ESE 12.7 mph 19.6 mph N/A   Overcast